Regional Weather Roundup
Issued by NWS

Home | Current Version | Previous Version | Text Only | Print | Product List | Glossary On
Versions: 1 2 3 4 5 6 7 8 9 10 11 12 13 14 15 16 17 18 19 20 21 22 23 24 25 26 27 28 29 30 31 32 33 34 35 36 37 38 39 40 41 42 43 44 45 46 47 48 49 50
000
ASUS43 KLSX 020907
RWRMO

WEATHER SUMMARY FOR MISSOURI
NATIONAL WEATHER SERVICE SPRINGFIELD MO
300 AM CST MON MAR 02 2015

NOTE: "FAIR" INDICATES FEW OR NO CLOUDS BELOW 12,000 FEET WITH NO
       SIGNIFICANT WEATHER AND/OR OBSTRUCTIONS TO VISIBILITY.
       CURRENT SKY AND/OR WEATHER CONDITIONS ARE NOT AVAILABLE FOR
       CHILLICOTHE AND FARMINGTON.

MOZ001>031-035>038-043-044-053-054-021000-
...NORTHERN AND WESTERN MISSOURI...

CITY           SKY/WX    TMP DP  RH WIND       PRES   REMARKS
KANSAS CTY INT PTCLDY    22  17  81 CALM      30.49F
KANSAS C DTWN  PTCLDY    24  20  84 CALM      30.51S
LEE`S SUMMIT   MOCLDY    24  19  81 CALM      30.49F
ST JOSEPH      PTCLDY    24  22  91 SE3       30.50F
CHILLICOTHE      N/A     21  17  84 CALM      30.53S
KIRKSVILLE     CLOUDY    19  17  92 W3        30.49F

$$
MOZ066>068-077>081-088>096-101>105-021000-
...SOUTHWEST MISSOURI...

CITY           SKY/WX    TMP DP  RH WIND       PRES   REMARKS
SPRINGFIELD    PTCLDY    20  16  84 NE9       30.46F WCI   9
JOPLIN         PTCLDY    21  18  88 NE6       30.48F FOG     WCI  13

$$
MOZ032>034-039>042-045>050-055>058-069>072-021000-
...CENTRAL MISSOURI...

CITY           SKY/WX    TMP DP  RH WIND       PRES   REMARKS
COLUMBIA       MOCLDY    19  17  92 W3        30.50F FOG
JEFFERSON CITY CLOUDY    13  11  92 CALM      30.54S FOG
ROLLA          PTCLDY    16  13  88 N5        30.47S FOG     WCI   9
SEDALIA        PTCLDY    16  12  84 SW3       30.50F FOG
WHITEMAN AFB   CLEAR     12   9  85 CALM      30.48F FOG
WARRENSBURG    PTCLDY    14  12  92 CALM      30.50F
OSAGE BEACH    PTCLDY    14  10  85 CALM      30.50F

$$
MOZ051-052-059>065-021000-
...EAST CENTRAL MISSOURI...

CITY           SKY/WX    TMP DP  RH WIND       PRES   REMARKS
ST LOUIS INTL  PTCLDY    18  13  80 SW5       30.51F WCI  11
SPIRIT OF STL  PTCLDY     9   6  88 CALM      30.52S
ST CHARLES     CLOUDY    10   6  84 CALM      30.52S FOG

$$
MOZ072>076-082>087-097>100-106>115-021000-
...SOUTH CENTRAL AND SOUTHEAST MISSOURI...

CITY           SKY/WX    TMP DP  RH WIND       PRES   REMARKS
CAPE GIRARDEAU CLEAR     29  23  78 N9        30.49S WCI  20
FARMINGTON     PTCLDY    25  19  80 N6        30.51S WCI  18
POPLAR BLUFF   CLOUDY    31  22  69 N12       30.47S WCI  22
WEST PLAINS    PTCLDY    25  20  81 NE6       30.46R WCI  18

$$


USA.gov is the U.S. government's official web portal to all federal, state and local government web resources and services.